Poplar Bluff, MO

8:18 PM CDT on September 20, 2019 (GMT -0500)
Poplar Bluff Municipal

Weather History for KPOF - May, 2019

Change the Weather History Date:

Tuesday, May 21, 2019

  Actual Average Record
Temperature  
Mean Temperature 70 °F -  
Max Temperature 84 °F 81 °F 98 °F (1925)
Min Temperature 57 °F 58 °F 37 °F (1954)
Cooling Degree Days 6    
Growing Degree Days 20 (Base 50)    
Moisture  
Dew Point 62 °F    
Average Humidity 91    
Maximum Humidity 100    
Minimum Humidity 60    
Precipitation  
Precipitation 2.23 in - - ()
Sea Level Pressure  
Sea Level Pressure 29.82 in    
Wind  
Wind Speed 14 mph (NNE)    
Max Wind Speed 31 mph    
Max Gust Speed 54 mph    
Visibility 6 miles    
Events Rain , Thunderstorm    
Averages and records for this station are not official NWS values.
T = Trace of Precipitation, MM = Missing Value Source: NWS Daily Summary

Daily Weather History Graph

Daily Weather History Graph

Search for Another Location

Airport or City:

Astronomy

May. 21, 2019 Rise Set
Actual Time 5:49 AM CDT 8:06 PM CDT
Civil Twilight 5:20 AM CDT 8:36 PM CDT
Nautical Twilight 4:44 AM CDT 9:12 PM CDT
Astronomical Twilight 4:04 AM CDT 9:51 PM CDT
Moon 11:01 PM CDT 8:06 AM CDT
Length of Visible Light 15h 15m
Length of Day
14h 17m
Waning Gibbous, 91% of the Moon is Illuminated
May 21
Waning Gibbous
May 26
Last Quarter
Jun 3
New
Jun 10
First Quarter
Jun 17
Full

Hourly Weather History & Observations

Time (CDT) Temp. Heat Index Dew Point Humidity Pressure Visibility Wind Dir Wind Speed Gust Speed Precip Events Conditions
12:53 AM 69.1 °F - 59.0 °F 70% 29.85 in 10.0 mi East 9.2 mph - N/A   Overcast
1:53 AM 68.0 °F - 60.1 °F 76% 29.81 in 10.0 mi East 10.4 mph - N/A   Overcast
2:46 AM 68.0 °F - 60.1 °F 76% 29.79 in 10.0 mi ESE 10.4 mph - N/A Thunderstorm Overcast
2:53 AM 69.1 °F - 60.1 °F 73% 29.84 in 10.0 mi North - - N/A Thunderstorm Thunderstorm
2:59 AM 68.0 °F - 62.1 °F 81% 29.85 in 1.2 mi West 31.1 mph 54.1 mph 0.00 in Rain , Thunderstorm Light Thunderstorms and Rain
3:07 AM 70.0 °F - 66.0 °F 87% 29.82 in 0.8 mi SSW 15.0 mph 54.1 mph 0.20 in Rain , Thunderstorm Light Thunderstorms and Rain
3:10 AM 69.1 °F - 66.0 °F 90% 29.82 in 2.5 mi SSW 12.7 mph 28.8 mph 0.20 in Rain , Thunderstorm Light Thunderstorms and Rain
3:17 AM 68.0 °F - 64.9 °F 90% 29.83 in 10.0 mi West 9.2 mph - 0.21 in Thunderstorm Thunderstorm
3:30 AM 66.9 °F - 64.9 °F 93% 29.82 in 8.0 mi Calm Calm - 0.21 in Rain , Thunderstorm Light Rain
3:49 AM 64.4 °F - 62.6 °F 94% 29.87 in 2.0 mi NNW 24.2 mph 36.8 mph 0.32 in Rain Heavy Rain
3:53 AM 63.0 °F - 63.0 °F 100% 29.84 in 2.0 mi North 23.0 mph 36.8 mph 0.38 in Rain Heavy Rain
3:57 AM 63.0 °F - 63.0 °F 100% 29.86 in 3.0 mi NNW 17.3 mph 36.8 mph 0.01 in Rain , Thunderstorm Light Rain
4:05 AM 63.0 °F - 63.0 °F 100% 29.86 in 4.0 mi North 21.9 mph 28.8 mph 0.03 in Rain , Thunderstorm Rain
4:10 AM 62.1 °F - 62.1 °F 100% 29.90 in 2.5 mi NNW 16.1 mph 28.8 mph 0.07 in Rain , Thunderstorm Heavy Thunderstorms and Rain
4:15 AM 62.6 °F - 62.6 °F 100% 29.88 in 1.2 mi North 19.6 mph 27.6 mph N/A Rain , Thunderstorm Heavy Thunderstorms and Rain
4:30 AM 61.0 °F - 60.1 °F 97% 29.88 in 2.0 mi NNE 18.4 mph 29.9 mph 0.55 in Rain , Thunderstorm Light Thunderstorms and Rain
4:33 AM 61.0 °F - 60.1 °F 97% 29.86 in 4.0 mi NNE 18.4 mph 28.8 mph 0.56 in Rain , Thunderstorm Light Rain
4:39 AM 61.0 °F - 60.1 °F 97% 29.86 in 5.0 mi NNE 18.4 mph 28.8 mph 0.56 in Rain Light Rain
4:42 AM 61.0 °F - 60.1 °F 97% 29.86 in 6.0 mi NNE 17.3 mph 27.6 mph 0.56 in Rain , Thunderstorm Light Rain
4:53 AM 60.1 °F - 60.1 °F 100% 29.86 in 2.0 mi NNE 16.1 mph - 0.68 in Rain , Thunderstorm Heavy Rain
4:56 AM 60.1 °F - 60.1 °F 100% 29.87 in 1.8 mi NNE 12.7 mph 21.9 mph 0.04 in Rain , Thunderstorm Heavy Rain
4:59 AM 60.1 °F - 60.1 °F 100% 29.87 in 2.0 mi NNE 13.8 mph 21.9 mph 0.08 in Rain , Thunderstorm Heavy Rain
5:04 AM 60.1 °F - 60.1 °F 100% 29.86 in 3.0 mi NE 15.0 mph - 0.09 in Rain Light Rain
5:20 AM 60.1 °F - 60.1 °F 100% 29.89 in 10.0 mi NNW 15.0 mph - 0.09 in Thunderstorm Overcast
5:25 AM 60.1 °F - 60.1 °F 100% 29.89 in 7.0 mi North 11.5 mph 20.7 mph 0.09 in Rain , Thunderstorm Light Rain
5:32 AM 60.1 °F - 59.0 °F 96% 29.87 in 3.0 mi NNE 13.8 mph - 0.10 in Rain , Thunderstorm Light Thunderstorms and Rain
5:35 AM 60.1 °F - 59.0 °F 96% 29.87 in 1.8 mi NNE 15.0 mph 20.7 mph 0.18 in Rain , Thunderstorm Heavy Thunderstorms and Rain
5:44 AM 59.0 °F - 59.0 °F 100% 29.87 in 2.0 mi NNE 12.7 mph 24.2 mph 0.31 in Rain , Thunderstorm Rain
5:49 AM 59.0 °F - 59.0 °F 100% 29.87 in 5.0 mi NE 15.0 mph - 0.31 in Rain , Thunderstorm Light Rain
5:53 AM 59.0 °F - 59.0 °F 100% 29.86 in 8.0 mi NE 11.5 mph - 0.31 in Rain Light Rain
6:53 AM 57.9 °F - 57.0 °F 97% 29.88 in 10.0 mi NNE 10.4 mph 21.9 mph 0.09 in   Overcast
7:12 AM 57.9 °F - 57.0 °F 97% 29.89 in 2.0 mi NE 10.4 mph 20.7 mph 0.07 in Rain Rain
7:22 AM 57.9 °F - 57.0 °F 97% 29.89 in 4.0 mi NE 11.5 mph - 0.09 in Rain Light Rain
7:36 AM 57.9 °F - 57.0 °F 97% 29.89 in 4.0 mi ENE 15.0 mph 23.0 mph 0.10 in Rain Light Rain
7:53 AM 57.9 °F - 57.9 °F 100% 29.87 in 6.0 mi ENE 15.0 mph - 0.11 in   Overcast
8:06 AM 57.9 °F - 57.9 °F 100% 29.87 in 7.0 mi ENE 11.5 mph 20.7 mph 0.00 in Rain Light Rain
8:53 AM 59.0 °F - 57.9 °F 96% 29.86 in 9.0 mi ENE 12.7 mph - 0.00 in   Overcast
9:53 AM 60.1 °F - 57.9 °F 93% 29.86 in 9.0 mi ENE 11.5 mph - N/A   Overcast
10:53 AM 62.1 °F - 60.1 °F 93% 29.84 in 8.0 mi ENE 9.2 mph - N/A   Overcast
11:43 AM 64.9 °F - 62.1 °F 90% 29.83 in 7.0 mi East 6.9 mph - N/A   Overcast
11:53 AM - - - N/A% 29.83 in 7.0 mi East 6.9 mph - N/A   Unknown
12:25 PM 68.0 °F - 64.0 °F 87% 29.82 in - North - - N/A   Overcast
12:53 PM 71.1 °F - 66.9 °F 87% 29.80 in 9.0 mi East 5.8 mph - N/A   Mostly Cloudy
1:05 PM 72.0 °F - 68.0 °F 87% 29.79 in 10.0 mi ESE 8.1 mph - N/A   Scattered Clouds
1:53 PM 78.1 °F - 73.0 °F 84% 29.75 in 10.0 mi SSE 11.5 mph - N/A   Clear
2:53 PM 82.0 °F 86.7 °F 72.0 °F 71% 29.70 in 10.0 mi South 15.0 mph 24.2 mph N/A   Mostly Cloudy
3:53 PM 82.9 °F 87.0 °F 70.0 °F 65% 29.69 in 10.0 mi South 21.9 mph 29.9 mph N/A   Mostly Cloudy
4:53 PM 84.0 °F 87.8 °F 69.1 °F 61% 29.66 in 10.0 mi South 16.1 mph 31.1 mph N/A   Scattered Clouds
5:53 PM 82.9 °F 85.8 °F 68.0 °F 60% 29.65 in 10.0 mi SSE 18.4 mph 32.2 mph N/A   Clear
6:53 PM 82.0 °F 84.5 °F 66.9 °F 60% 29.65 in 10.0 mi South 16.1 mph 25.3 mph N/A   Scattered Clouds
7:29 PM 79.0 °F - 66.0 °F 64% 29.68 in 10.0 mi West 16.1 mph 25.3 mph N/A Thunderstorm Mostly Cloudy
7:34 PM 75.0 °F - 64.0 °F 69% 29.67 in 10.0 mi WNW 13.8 mph 25.3 mph N/A Thunderstorm Mostly Cloudy
7:46 PM 66.0 °F - 64.0 °F 93% 29.71 in 1.8 mi WNW 20.7 mph 38.0 mph 0.05 in Rain , Thunderstorm Heavy Rain
7:53 PM 64.0 °F - 63.0 °F 96% 29.72 in 1.8 mi WNW 16.1 mph 33.4 mph 0.19 in Rain Light Rain
7:55 PM 64.4 °F - 62.6 °F 94% 29.73 in 3.0 mi West 13.8 mph 29.9 mph N/A Rain Light Rain
8:53 PM 64.0 °F - 62.1 °F 93% 29.73 in 10.0 mi North 3.5 mph - 0.00 in   Scattered Clouds
9:15 PM 64.0 °F - 62.1 °F 93% 29.78 in 10.0 mi WNW 5.8 mph - 0.00 in Rain , Thunderstorm Light Rain
9:40 PM 63.0 °F - 62.1 °F 97% 29.77 in 3.0 mi Variable 4.6 mph - 0.04 in Rain Heavy Rain
9:53 PM 64.0 °F - 62.1 °F 93% 29.79 in 10.0 mi West 5.8 mph - 0.06 in   Overcast
10:53 PM 63.0 °F - 61.0 °F 93% 29.79 in 9.0 mi Variable 6.9 mph - 0.04 in Rain Light Rain
11:29 PM 62.1 °F - 61.0 °F 96% 29.82 in 1.8 mi SW 9.2 mph - 0.11 in Rain , Thunderstorm Heavy Rain
11:44 PM 61.0 °F - 61.0 °F 100% 29.80 in 2.0 mi SSW 10.4 mph 19.6 mph 0.34 in Rain , Thunderstorm Heavy Thunderstorms and Rain
11:53 PM 61.0 °F - 61.0 °F 100% 29.80 in 3.0 mi SSW 8.1 mph - 0.37 in Rain , Thunderstorm Thunderstorms and Rain